Regional Weather Roundup
Issued by NWS Bismarck, ND

Home | Current Version | Previous Version | Text Only | Print | Product List | Glossary On
Versions: 1 2 3 4 5 6 7 8 9 10 11 12 13 14 15 16 17 18 19 20 21 22 23 24 25 26 27 28 29 30 31 32 33 34 35 36 37 38 39 40 41 42 43 44 45 46 47 48 49 50
000
ASUS43 KBIS 131510
RWRBIS

NWR BROADCAST TEXT
NATIONAL WEATHER SERVICE BISMARCK ND
900 AM CST SAT FEB 13 2016

NOTE: "FAIR" INDICATES FEW OR NO CLOUDS BELOW 12,000 FEET WITH NO
SIGNIFICANT WEATHER AND/OR OBSTRUCTIONS TO VISIBILITY.


CITY           SKY/WX    TMP DP  RH WIND       PRES   REMARKS
WILLISTON      CLOUDY    14   9  80 SE10      30.02F WCI   1
MINOT          CLOUDY    13   0  56 SE17G24   30.17F WCI  -4
MINOT AFB      CLOUDY    11   3  70 SE17G24   30.17F WCI  -7
BISMARCK       CLOUDY    11  -2  56 SE15      30.25F WCI  -5
DICKINSON      LGT SNOW  10   7  87 S23G29    29.99F VSB 1   WCI -10
GARRISON         N/A      9   2  73 S22       30.16F WCI -11
HETTINGER ARPT FOG       13  11  92 SE15G23   30.06F VSB 1   WCI  -3
JAMESTOWN      CLOUDY     0  -9  65 SE16      30.37F WCI -20
BEACH          CLOUDY    18  18 100 S18       29.98S WCI   2
CARRINGTON     CLOUDY     1  -6  71 SE22      30.35F WCI -21
HAZEN          LGT SNOW   9   1  72 SE10G16   30.21S WCI  -6
LINTON         CLOUDY     7   0  72 SE16G26   30.27F WCI -11
MANDAN         PTSUNNY    7   0  72 SE18      30.21F HAZE    WCI -12
OAKES          CLOUDY     1  -4  78 SE10      30.43F WCI -14
RUGBY          CLOUDY     1  -6  71 SE17G24   30.26F WCI -19
STANLEY        CLOUDY    10   9  92 SE22      30.09F WCI  -9
TIOGA          PTSUNNY   10   9  92 SE17G26   30.08F FOG     WCI  -7
WATFORD CITY   CLOUDY    14   9  79 SE12      30.03F WCI   0
$$

CITY           SKY/WX    TMP DP  RH WIND       PRES   REMARKS
GRAND FORKS    CLOUDY    -5 -13  68 S10       30.54F WCI -23
GRAND FORKS AF CLOUDY    -6 -13  72 S10       30.51F WCI -23
DEVILS LAKE    CLOUDY    -6 -12  75 SE10      30.36F WCI -24
FARGO          CLOUDY    -2  -9  72 SE12      30.54F WCI -20
CAVALIER       FAIR      -6 -11  77 S13       30.50F WCI -25
GRAFTON        FAIR      -8 -13  77 SE12      30.55F WCI -27
GWINNER        CLOUDY     1  -6  71 SE17      30.46F WCI -19
LANGDON        FAIR     -11 -17  77 SE15      30.37F WCI -34
ROLLA          FAIR      -9 -17  70 S9        30.29F WCI -27
WALHALLA       FAIR      -6 -13  71 S14       30.47F WCI -26
$$

CITY           SKY/WX    TMP DP  RH WIND       PRES   REMARKS
ABERDEEN       CLOUDY     8  -5  55 SE20      30.41F WCI -11
MOBRIDGE       CLOUDY    11   3  70 SE18      30.21F WCI  -7
BUFFALO          N/A     20  18  92 SE13      29.92F WCI   7
RAPID CITY     CLOUDY    31  29  92 SE9       29.99F
GLASGOW        CLEAR     17  13  84 E15       29.85F WCI   2
SIDNEY         CLOUDY    18  12  79 SE7       29.99F WCI   8
WOLF POINT     CLOUDY    16  11  80 E10       29.92F WCI   4
GLENDIVE       CLOUDY    21  18  86 SE3       29.95F
MILES CITY     CLOUDY    30  26  85 E7        29.90F
BAKER          CLOUDY    23  19  85 SE16      29.94F WCI  10
$$

CITY           SKY/WX    TMP DP  RH WIND       PRES   REMARKS
BILLINGS       PTCLDY    40  28  62 SW15      29.86F
GREAT FALLS    CLOUDY    41  30  65 SW13G21   29.88R
REGINA         FLURRIES  12   9  85 SE22G28   29.93F WCI  -7
$$




USA.gov is the U.S. government's official web portal to all federal, state and local government web resources and services.